Regional Weather Roundup
Issued by NWS San Diego, CA

Home | Current Version | Previous Version | Text Only | Print | Product List | Glossary On
Versions: 1 2 3 4 5 6 7 8 9 10 11 12 13 14 15 16 17 18 19 20 21 22 23 24 25 26 27 28
000
ASUS46 KSGX 222011
RWRSGX

SAN DIEGO HOURLY WEATHER ROUNDUP
NATIONAL WEATHER SERVICE SAN DIEGO CA
1200 PM PST MON JAN 22 2018

NOTE: "FAIR" INDICATES FEW OR NO CLOUDS BELOW 12,000 FEET WITH NO
SIGNIFICANT WEATHER AND/OR OBSTRUCTIONS TO VISIBILITY.

CAZ042-043-060-061-PZZ750-775-222100-

GREATER SAN DIEGO AREA

CITY           SKY/WX    TMP DP  RH WIND       PRES   REMARKS
SAN DIEGO AP   SUNNY     64  30  27 W7        30.23F
NATIONAL CITY    N/A     64  35  33 W3        30.23F
CHULA VISTA      N/A     66  39  38 W6        30.13F
IMPERIAL BEACH MOSUNNY   64  37  36 NW10      30.21F
BROWN FIELD    SUNNY     65  33  30 W7        30.19F
MIRAMAR MCAS   SUNNY     69  25  19 NW6       30.20F
MONTGOMERY FLD SUNNY     67  20  16 NW5       30.20F

$$

NORTH SAN DIEGO COUNTY

CITY           SKY/WX    TMP DP  RH WIND       PRES   REMARKS
CAMP PENDLETON SUNNY     66  30  26 SW8       30.20F
OCEANSIDE AP   SUNNY     65  35  33 W12       30.21F
OCEANSIDE HBR    N/A     59  42  52 CALM      30.24F
VISTA            N/A     64  29  27 CALM      30.20F
CARLSBAD       SUNNY     63  26  24 W8        30.20F
DEL MAR          N/A     62  39  41 CALM      30.24F
LA JOLLA SCRIP   N/A     58  40  50 W2        30.21F
FALLBROOK        N/A     65  26  22 S1        30.22F
ESCONDIDO        N/A     66  25  21 CALM      30.21F
SAN MARCOS       N/A     65  30  26 NW1       30.24F
POWAY            N/A     67  28  23 CALM      30.22F

$$

EAST SAN DIEGO COUNTY

CITY           SKY/WX    TMP DP  RH WIND       PRES   REMARKS
RAMONA         SUNNY     64  16  15 E9        30.20F
SANTEE LAKES     N/A     67  27  22 CALM      30.20F
LA MESA          N/A     63  28  26 W2        30.15F
JAMUL            N/A     64  30  27 CALM      30.22F
DESCANSO N       N/A     53  15  22 E12       30.20F
MT. LAGUNA OBS   N/A     37   8  29 NE12      30.25F WCI  29
CAMPO            N/A     54  13  19 NE21      30.17F

$$

ORANGE COUNTY AND THE LOS ANGELES BASIN

CITY           SKY/WX    TMP DP  RH WIND       PRES   REMARKS
JOHN WAYNE AP  SUNNY     65  26  23 VRB3      30.21F
LAGUNA BEACH     N/A     61  40  45 CALM      30.18F
HUNTINGTON BCH   N/A     65  41  41 W3        30.23F
LOS ALAMITOS   SUNNY     67  22  18 CALM      30.21F
FULLERTON      SUNNY     67  24  19 VRB3      30.21F
LONG BEACH     SUNNY     68  24  19 VRB3      30.22F
L.A. AP        MOSUNNY   66  24  20 CALM      30.22F
L.A. DOWNTOWN  SUNNY     66  20  17 E6        30.22F

$$

THE INLAND EMPIRE

CITY           SKY/WX    TMP DP  RH WIND       PRES   REMARKS
CORONA         SUNNY     68  19  15 SE8       30.22F
CHINO          SUNNY     67  22  18 S3        30.23F
ONTARIO        SUNNY     62  17  17 CALM      30.22F
SAN BERNARDINO SUNNY     63  16  16 CALM      30.23F
RIVERSIDE AP   SUNNY     65  16  15 VRB7      30.22F
MARCH ARB      SUNNY     62  17  17 NE8       30.21F
HORSETHIEF CYN   N/A     61  12  14 E5        30.25F
PERRIS           N/A     63  31  30 CALM      30.20F
HEMET EAST       N/A     58  18  20 CALM      30.29F
FRENCH VALLEY  NOT AVBL
TEMECULA         N/A     60  33  36 SW2       30.26F

$$

SAN BERNARDINO AND RIVERSIDE COUNTY MOUNTAINS

CITY           SKY/WX    TMP DP  RH WIND       PRES   REMARKS
BIG BEAR AP    NOT AVBL
ANGELUS OAKS     N/A     44  16  31 CALM      30.30F

$$

SOUTHERN DESERT INCLUDING THE COACHELLA VALLEY

CITY           SKY/WX    TMP DP  RH WIND       PRES   REMARKS
PALM SPRINGS   SUNNY     64  17  16 VRB6      30.26F
THOUSAND PALMS   N/A     64  22  20 W1        30.24F
PALM DESERT      N/A     66  24  20 CALM      31.78R
THERMAL        SUNNY     67  14  13 W5        30.24F
BLYTHE           N/A     61  18  18 N14G21    30.25F
IMPERIAL AP    SUNNY     64  23  21 VRB3      30.25F
EL CENTRO NAS  MOSUNNY   64  17  16 VRB5      30.27F
YUMA AZ        MOSUNNY   63  16  16 N12       30.23F
MEXICALI       SUNNY     63  16  16 W5        30.26

$$

UPPER DESERT

CITY           SKY/WX    TMP DP  RH WIND       PRES   REMARKS
VICTORVILLE AP SUNNY     52  12  20 CALM      30.29F
HESPERIA         N/A     51  18  26 N3        30.49F
APPLE VALLEY     N/A     54  18  24 SW2       30.39F
PALMDALE       SUNNY     52  19  27 E6        30.29F
LANCASTER      SUNNY     50  21  32 SE3       30.30F
EDWARDS AFB    SUNNY     51  19  28 CALM      30.27F
DAGGETT        SUNNY     54  16  22 W3        30.29F
29 PALMS N     SUNNY     55  11  17 NW6       30.33F
NEEDLES        SUNNY     61  19  19 N15       30.27F

$$

REGIONAL REPORTS

CITY           SKY/WX    TMP DP  RH WIND       PRES   REMARKS
SANTA BARBARA  SUNNY     61  46  57 SE12      30.24F
SANDBERG       SUNNY     50  16  25 N13G28    30.27F
LAS VEGAS NV   MOSUNNY   50  21  32 CALM      30.29F
PHOENIX AZ     PTSUNNY   54  22  28 VRB3      30.20F
TIJUANA        SUNNY     64  23  20 CALM      30.23F
ENSENADA NW      N/A     62  32  32 CALM      30.11F

$$

OFFSHORE ISLANDS

CITY           SKY/WX    TMP DP  RH WIND       PRES   REMARKS
CATALINA ARPT    N/A     58  21  24 NW7       30.24F
SAN CLEMENTE I SUNNY     62  48  60 N13       30.25F
SAN NICOLAS IS SUNNY     60  48  64 NW18      30.24F

$$

MARINE AND OFFSHORE BUOY REPORTS

STATION/POSITION SKY/WX   TEMP    WIND        PRES    VSBY  SWELL
                          AIR SEA DIR/SP/G                  HT/PER/DIR
                          (F)     (DEG/KT/KT) (MB)    (MI)  (FT/S/D)
TANNER BANKS               58 59              1024.1F
S CLEMENTE BASIN           60 61   10/  8/ 10 1024.7          5/280/12
SAN NICOLAS IS.               58                N/A          10/310/14
SO. S. ROSA ISLA           56 56  310/ 19/ 23 1024.2F         8/300/14
W. S. BARBARA CH           56 56  320/ 21/ 27 1025.0F        10/300/12
M. S. BARBARA CH           58 58   90/  2/  6 1024.9F         5/270/12
S. MONICA BASIN               60  300/ 10/ 12 1023.6F         3/270/12
S PEDRO CHANNEL               60                N/A           2/270/12
CMP PENDLETON NS              60                N/A           2/250/13
OCEANSIDE OFFSHR              61                N/A           2/260/13
TORREY PINES OTR              61                N/A           2/280/13
SAN DIEGO BAY                 63              1023.7F
POINT LOMA SOUTH              61                N/A           3/280/13

$$





USA.gov is the U.S. government's official web portal to all federal, state and local government web resources and services.